Weather History for Monarch Pass, CO

Change the Weather History Date:

Wednesday, April 9, 2014

  Actual Average (KGUC) Record (KGUC)
Temperature  
Mean Temperature 36 °F -  
Max Temperature 41 °F 49 °F 66 °F (2012)
Min Temperature 32 °F 21 °F 15 °F (2001)
Degree Days  
Heating Degree Days 28    
Moisture  
Dew Point 13 °F    
Average Humidity 40    
Maximum Humidity 48    
Minimum Humidity 33    
Precipitation  
Precipitation 0.00 in - - ()
Sea Level Pressure  
Sea Level Pressure 30.41 in    
Wind  
Wind Speed 41 mph (West)    
Max Wind Speed 52 mph    
Max Gust Speed 62 mph    
Visibility 10 miles    
Events      
Averages and records for this station are not official NWS values.
T = Trace of Precipitation, MM = Missing Value Source: NWS Daily Summary

Daily Weather History Graph

Daily Weather History Graph

Search for Another Location

Airport:

Trip Planner

Search our weather history database for the weather conditions in past years. The results will help you decide how hot, cold, wet, or windy it might be!

Date:

Astronomy

Apr. 09, 2014 Rise Set
Actual Time 6:37 AM MDT 7:36 PM MDT
Civil Twilight 6:10 AM MDT 8:03 PM MDT
Nautical Twilight 5:38 AM MDT 8:35 PM MDT
Astronomical Twilight 5:05 AM MDT 9:08 PM MDT
Moon 2:30 PM MDT (4/9) 3:24 AM MDT (4/9)
Length of Visible Light 13h 52m
Length of Day
12h 58m
Waxing Gibbous, 72% of the Moon is Illuminated
Apr 9
Waxing Gibbous
Apr 15
Full
Apr 22
Last Quarter
Apr 29
New
May 6
First Quarter

Hourly Weather History & Observations

Time (MDT) Temp. Windchill Dew Point Humidity Pressure Visibility Wind Dir Wind Speed Gust Speed Precip Events Conditions
12:15 PM 35.6 °F 21.1 °F 14.0 °F 41% 30.50 in 10.0 mi West 38.0 mph 42.6 mph N/A   Clear
12:35 PM 35.6 °F 22.7 °F 14.0 °F 41% 30.50 in 10.0 mi West 28.8 mph 44.9 mph N/A   Clear
12:54 PM 35.6 °F 22.3 °F 15.8 °F 44% 30.49 in 10.0 mi West 31.1 mph 43.7 mph N/A   Clear
1:12 PM 35.6 °F 20.3 °F 17.6 °F 48% 30.48 in 10.0 mi West 43.7 mph 49.5 mph N/A   Clear
1:30 PM 37.4 °F 23.3 °F 15.8 °F 41% 30.47 in 10.0 mi West 40.3 mph 50.6 mph N/A   Clear
1:55 PM 37.4 °F 22.8 °F 17.6 °F 45% 30.46 in 10.0 mi West 43.7 mph 54.1 mph N/A   Clear
2:12 PM 37.4 °F 22.2 °F 17.6 °F 45% 30.45 in 10.0 mi West 48.3 mph 56.4 mph N/A   Clear
2:35 PM 37.4 °F 22.7 °F 17.6 °F 45% 30.45 in 10.0 mi West 44.9 mph 54.1 mph N/A   Clear
2:55 PM 37.4 °F 23.0 °F 17.6 °F 45% 30.43 in 10.0 mi West 42.6 mph 55.2 mph N/A   Clear
3:10 PM 37.4 °F 22.7 °F 17.6 °F 45% 30.43 in 10.0 mi West 44.9 mph 59.8 mph N/A   Clear
3:35 PM 39.2 °F 25.8 °F 15.8 °F 39% 30.43 in 10.0 mi West 40.3 mph 55.2 mph N/A   Clear
3:55 PM 41.0 °F 29.0 °F 14.0 °F 33% 30.41 in 10.0 mi West 35.7 mph 62.1 mph N/A   Clear
4:15 PM 41.0 °F 28.0 °F 14.0 °F 33% 30.41 in 10.0 mi West 42.6 mph 56.4 mph N/A   Clear
4:25 PM 39.2 °F 24.8 °F 14.0 °F 36% 30.39 in 10.0 mi West 48.3 mph 57.5 mph N/A   Clear
4:55 PM 37.4 °F 22.5 °F 12.2 °F 36% 30.39 in 10.0 mi West 46.0 mph 51.8 mph N/A   Clear
5:10 PM 37.4 °F 22.8 °F 12.2 °F 36% 30.39 in 10.0 mi West 43.7 mph 54.1 mph N/A   Clear
5:33 PM 37.4 °F 23.8 °F 14.0 °F 38% 30.40 in 10.0 mi West 36.8 mph 56.4 mph N/A   Clear
5:55 PM 37.4 °F 22.2 °F 14.0 °F 38% 30.39 in 10.0 mi West 48.3 mph 51.8 mph N/A   Clear
6:14 PM 37.4 °F 22.5 °F 12.2 °F 36% 30.39 in 10.0 mi West 46.0 mph 58.7 mph N/A   Clear
6:34 PM 37.4 °F 22.0 °F 12.2 °F 36% 30.39 in 10.0 mi West 50.6 mph 62.1 mph N/A   Clear
6:53 PM 37.4 °F 22.7 °F 12.2 °F 36% 30.39 in 10.0 mi West 44.9 mph 61.0 mph N/A   Clear
7:13 PM 35.6 °F 20.8 °F 10.4 °F 35% 30.38 in 10.0 mi West 40.3 mph 55.2 mph N/A   Clear
7:35 PM 35.6 °F 19.3 °F 10.4 °F 35% 30.37 in 10.0 mi West 51.8 mph 59.8 mph N/A   Clear
7:51 PM 35.6 °F 19.8 °F 10.4 °F 35% 30.36 in 10.0 mi West 47.2 mph 56.4 mph N/A   Clear
8:15 PM 33.8 °F 17.0 °F 10.4 °F 38% 30.36 in 10.0 mi West 49.5 mph 55.2 mph N/A   Clear
8:28 PM 33.8 °F 17.5 °F 10.4 °F 38% 30.37 in 10.0 mi West 46.0 mph 57.5 mph N/A   Clear
8:41 PM 33.8 °F 17.1 °F 10.4 °F 38% 30.36 in 10.0 mi West 48.3 mph 58.7 mph N/A   Clear
9:04 PM 33.8 °F 17.3 °F 12.2 °F 41% 30.37 in 10.0 mi West 47.2 mph 57.5 mph N/A   Clear
9:20 PM 33.8 °F 17.8 °F 12.2 °F 41% 30.38 in 10.0 mi West 43.7 mph 50.6 mph N/A   Clear
9:52 PM 33.8 °F 17.6 °F 12.2 °F 41% 30.38 in 10.0 mi West 44.9 mph 50.6 mph N/A   Clear
10:14 PM 32.0 °F 15.4 °F 12.2 °F 44% 30.38 in 10.0 mi West 42.6 mph 51.8 mph N/A   Clear
10:35 PM 32.0 °F 16.0 °F 12.2 °F 44% 30.38 in 10.0 mi West 39.1 mph 50.6 mph N/A   Clear
10:53 PM 32.0 °F 15.6 °F 12.2 °F 44% 30.38 in 10.0 mi West 41.4 mph 51.8 mph N/A   Clear
11:12 PM 32.0 °F 15.8 °F 12.2 °F 44% 30.38 in 10.0 mi West 40.3 mph 46.0 mph N/A   Clear
11:27 PM 32.0 °F 15.6 °F 12.2 °F 44% 30.38 in 10.0 mi West 41.4 mph 44.9 mph N/A   Clear
11:55 PM 32.0 °F 16.2 °F 12.2 °F 44% 30.38 in 10.0 mi West 38.0 mph 46.0 mph N/A   Clear